Regional Weather Roundup
Issued by NWS

Home | Current Version | Previous Version | Graphics & Text | Print | Product List | Glossary On
Versions: 1 2 3 4 5 6 7 8 9 10 11 12 13 14 15 16 17 18 19 20 21 22 23 24 25 26 27 28 29 30 31 32 33 34 35 36 37 38 39 40 41 42 43 44 45 46 47 48 49 50
365
ASUS43 KLMK 110910
RWRKY
KENTUCKY REGIONAL WEATHER ROUNDUP
NATIONAL WEATHER SERVICE LOUISVILLE KY
400 AM EST THU FEB 11 2016

NOTE "FAIR" INDICATES FEW OR NO CLOUDS BELOW 12,000 FEET
WITH NO SIGNIFICANT WEATHER AND/OR OBSTRUCTIONS TO VISIBILITY.

KYZ001>023-026-027-061>063-070>075-111000-
WESTERN AND SOUTH CENTRAL KENTUCKY

CITY           SKY/WX    TMP DP  RH WIND       PRES   REMARKS
PADUCAH        CLOUDY    24  19  81 NE6       30.14R WCI  17
HENDERSON      CLOUDY    23  18  80 E6        30.19R WCI  16
OWENSBORO      CLOUDY    23  19  85 NE5       30.19S WCI  17
HOPKINSVILLE   CLOUDY    25  21  86 E6        30.15R WCI  18
BOWLING GREEN  CLOUDY    25  19  78 NE6       30.18S WCI  18
GLASGOW        CLOUDY    23  19  83 CALM      30.16S
$$

KYZ024-025-028>034-038-045-046-053-111000-
NORTH CENTRAL KENTUCKY

CITY           SKY/WX    TMP DP  RH WIND       PRES   REMARKS
LOUISVILLE/SDF CLOUDY    21  12  68 NW7       30.19R WCI  12
LOUISVILLE/LOU CLOUDY    21  12  68 NW6       30.19S WCI  13
FORT KNOX      CLOUDY    20  14  78 N2        30.15R
$$

KYZ035>037-039>044-047>052-055>060-089>105-111000-
NORTHEAST KENTUCKY

CITY           SKY/WX    TMP DP  RH WIND       PRES   REMARKS
LEXINGTON      CLOUDY    17  10  74 CALM      30.15R
COVINGTON      CLOUDY    13   6  74 W3        30.14S
FRANKFORT      CLOUDY    19   9  65 CALM      30.15S
$$

KYZ054-064>069-076>088-106>120-111000-
SOUTHEAST KENTUCKY

CITY           SKY/WX    TMP DP  RH WIND       PRES   REMARKS
JACKSON        CLOUDY    17   9  70 SW3       30.12R
LONDON         CLOUDY    20  12  71 CALM      30.14S
SOMERSET       CLOUDY    21  14  73 W3        30.18R
MIDDLESBORO    CLOUDY    23  14  67 CALM      30.15S
MONTICELLO     FLURRIES  22  17  81 NW3       30.18R
$$





USA.gov is the U.S. government's official web portal to all federal, state and local government web resources and services.